Weather in Novotroitsk

Russia / Orenburg Oblast     51°11′47″N   58°18′06″E
temp.,
°C
wind,
m/s
gust,
m/s
humid.,
%
clouds,
%
prec.,
mm/h
press.,
hPa
HPBL,
m
19 september, sun
sun1923:00+5nw36690 0.0 1018144
02:00+4wnw59735 0.0 1018224
05:00+3wnw511775 0.0 1019360
08:00+3wnw511715 0.0 1020672
11:00+8nw78465 0.0 10211186
14:00+11nw78325 0.0 10211659
17:00+12nw78314 0.0 10211755
20:00+8wnw474310 0.0 1022141
20 september, mon
mon2023:00+6nw3651100 0.0 1023103
02:00+4wnw225635 0.0 102424
05:00+3nw22605 0.0 102520
08:00+4nw235785 0.0 102595
11:00+9nnw3338100 0.0 1025943
14:00+12nw232875 0.0 10241356
17:00+14nnw232477 0.0 10231563
20:00+10ne1132100 0.0 102326
21 september, tue
tue2123:00+8e463962 0.0 1025114
02:00+6e344495 0.0 102675
05:00+6e4646100 0.0 1027202
08:00+6e4745100 0.0 1027330
11:00+9ese5637100 0.0 1028710
14:00+11ese4533100 0.0 1026964
17:00+12ese3331100 0.0 10261015
20:00+10ese3535100 0.0 1025101
22 september, wed
wed2223:00+10ese363669 0.0 1026169
02:00+8se224093 0.0 102541
05:00+7se2343100 0.0 102657
08:00+9se244067 0.0 1026193
11:00+12se3332100 0.0 1026631
14:00+14se332939 0.0 1025920
17:00+15ese2228100 0.0 10251191
20:00+12e3434100 0.0 102552
23 september, thu
thu2323:00+12se2235100 0.0 102651
02:00+11ese2239100 0.0 102634
05:00+10e2246100 0.0 102720
08:00+9ene2348100 0.0 1028109
11:00+14e46355 0.0 1028747
14:00+17ese56274 0.0 10271486
17:00+17e562510 0.0 10271624
20:00+12e5103497 0.0 1028223